OPS 9326

operational
NORAD ID: 2653 Int'l Des: 1967-003 Owner: AFSSD Country: US
MEOCIRCULAR

OPS 9326について

説明を読み込み中...

リアルタイム位置

3D地球を読み込み中...

次回通過

高度履歴

Altitude vs Time

uPlot chart will show altitude changes over time

軌道要素

1 02653U 67003F 25338.22039449 -.00000110 00000-0 00000-0 0 9999
2 02653 7.8130 48.0395 0043479 60.2372 300.0607 1.07748735130599
Epoch: Dec 4, 2025 • Age: 77 hours

現在のステータス

高度 33876.1 km
速度 3.14 km/s
衛星直下点 1.12°N, 16.94°W
タイプ other

大規模コンステレーション

Loading constellations...